Location: Bridalveil Moraine
(37.7171°N, 119.6568°W)
Time: 02:13:54
(UTC+00:00)

BlueWalker 3 - Pass Details

Date: 07 August 2024
Orbit: 476 x 487 km, 53.2° (Epoch: 11 September)

Event Time Altitude Azimuth Distance (km) Brightness Sun altitude
Exits shadow 09:39:34 11° 70° (ENE) 1,594 5.0 -31.6°
Drops below altitude 10° 09:39:49 10° 68° (ENE) 1,684 5.1 -31.6°
Sets 09:42:10 0° 57° (ENE) 2,571 6.4 -31.4°
